User: anonymous   Login
Location: Aciu?a
(46.2833°N, 22.4500°E)
Time: 23:43:52
(UTC+00:00)
Language:

Cosmos 1455 - Orbit

View from above orbital plane
View from above orbital plane
View from above satellite
View from above satellite

Ground track
Ground track

The orbit data is extracted from the following two-line orbital elements,

1 14032U 83037A   22276.46777168  .00007006  00000-0  30850-3 0  9998
2 14032  82.5153 333.1952 0016613  31.7783 328.4451 15.21542586154655
Epoch (UTC): 03 October 2022 11:13:35
Eccentricity: 0.0016613
inclination: 82.5153°
perigee height: 490 km
apogee height: 512 km
right ascension of ascending node: 333.1952°
argument of perigee: 31.7783°
revolutions per day: 15.21542586
mean anomaly at epoch: 328.4451°
orbit number at epoch: 15465

The dashed part of the orbit path shows where the satellite is in the earth's shadow,  

DLR